Location: Newark
(46.2667°N, 5.0658°E)
Time: 00:21:24
(UTC+00:00)

Envisat - Visible Passes

Search period start: 21 September 2019 00:00
Search period end: 01 October 2019 00:00
Orbit: 764 x 766 km, 98.1° (Epoch: 20 September)

Date Brightness Start Highest point End Pass type
(mag) Time Alt. Az. Time Alt. Az. Time Alt. Az.
21 Sep 5.5 18:48:37 10° SSW 18:52:45 25° W 18:56:53 10° NW visible
22 Sep 4.0 18:10:48 10° S 18:15:44 51° W 18:20:43 10° NNW visible
23 Sep 6.0 19:15:46 10° WSW 19:18:33 15° W 19:21:20 10° NW visible
24 Sep 5.1 18:36:56 10° SSW 18:41:24 30° W 18:45:52 10° NNW visible
25 Sep 3.6 17:59:25 10° S 18:04:27 64° WSW 18:09:31 10° NNW visible
26 Sep 5.9 19:03:41 10° SW 19:07:09 18° W 19:10:38 10° NW visible
27 Sep 4.6 18:25:22 10° SSW 18:30:04 38° W 18:34:48 10° NNW visible
28 Sep 3.2 17:48:06 10° S 17:53:10 80° WSW 17:58:18 10° NNW visible
28 Sep 6.4 19:32:13 10° W 19:33:01 10° W 19:33:50 10° WNW visible
29 Sep 5.5 18:51:49 10° SW 18:55:47 23° W 18:59:46 10° NW visible
30 Sep 4.2 18:13:52 10° S 18:18:45 47° W 18:23:40 10° NNW visible
